Regional Weather Roundup
Issued by NWS Burlington, VT

Current Version | Previous Version | Text Only | Print | Product List | Glossary On
Versions: 1 2 3 4 5 6 7 8 9 10 11 12 13 14 15 16 17 18 19 20 21 22 23 24 25 26 27 28 29 30 31 32 33 34 35 36 37 38 39 40 41 42 43 44 45 46 47 48 49 50
000 ASUS41 KBTV 020030 RWRBTV VERMONT REGIONAL WEATHER ROUNDUP NATIONAL WEATHER SERVICE BURLINGTON VT 700 PM EST SUN MAR 01 2015 NOTE: "FAIR" INDICATES FEW OR NO CLOUDS BELOW 12,000 FEET WITH NO SIGNIFICANT WEATHER AND/OR OBSTRUCTIONS TO VISIBILITY. * THESE REPORTS ARE NOT UNDER NWS QUALITY CONTROL AND/OR DO NOT REPORT WEATHER SUCH AS PRECIPITATION AND FOG. VTZ001>019-020100- _____VERMONT_____ CITY SKY/WX TMP DP RH WIND PRES REMARKS BURLINGTON CLOUDY 25 16 68 S15G24 30.17F WCI 13 6HR MIN TEMP: 25; 6HR MAX TEMP: 28; MONTPELIER LGT SNOW 21 16 81 S10 30.17F WCI 10 6HR MIN TEMP: 21; 6HR MAX TEMP: 26; 6HR PCP: TRACE; MORRISVILLE CLOUDY 26 17 68 CALM 30.16F 6HR MIN TEMP: 26; 6HR MAX TEMP: 30; ST. JOHNSBURY* N/A 25 16 68 MISG 30.17F 6HR MIN TEMP: 24; 6HR MAX TEMP: 28; LYNDONVILLE* FLURRIES 23 15 71 SE5 30.15F 6HR MIN TEMP: 23; 6HR MAX TEMP: 27; MIDDLEBURY* LGT SNOW 23 20 89 S8 30.19F 6HR MIN TEMP: 24; 6HR MAX TEMP: 28; RUTLAND* CLOUDY 21 19 93 SE5 30.18F 6HR MIN TEMP: 21; 6HR MAX TEMP: 27; SPRINGFIELD LGT SNOW 22 19 89 CALM 30.22F VSB 1 6HR MIN TEMP: 20; 6HR MAX TEMP: 25; 6HR PCP: 0.01; HIGHGATE* CLOUDY 26 16 68 S10G16 30.16F WCI 15 6HR MIN TEMP: 26; 6HR MAX TEMP: 30; NEWPORT* LGT SNOW 22 18 84 SE5 30.13F 6HR MIN TEMP: 22; 6HR MAX TEMP: 29; BENNINGTON LGT SNOW 23 20 88 CALM 30.19F FOG 6HR MIN TEMP: 23; 6HR MAX TEMP: 26; 6HR PCP: 0.01; GALLUP MILLS* N/A 21 N/A N/A MISG N/A MT. MANSFIELD* N/A 14 N/A N/A CALM N/A _____LAKE CHAMPLAIN_____ CITY SKY/WX TMP DP RH WIND PRES REMARKS BURTON ISLAND* N/A 27 21 80 S18 N/A WCI 13 COLCHESTER RF* N/A 27 21 80 S30 N/A WCI 10 DIAMOND ISL* N/A 27 21 80 S17 N/A WCI 14 $$ NYZ007-026>031-035-052-083-020100- _____NORTHERN NEW YORK_____ CITY SKY/WX TMP DP RH WIND PRES REMARKS PLATTSBURGH CLOUDY 26 17 68 S8 30.17F 6HR MIN TEMP: 25; 6HR MAX TEMP: 28; SARANAC LAKE LGT SNOW 21 18 88 SW9 30.06F FOG 6HR MIN TEMP: 21; 6HR MAX TEMP: 25; 6HR PCP: TRACE; MASSENA CLOUDY 25 22 88 SW7 30.17F 6HR MIN TEMP: 25; 6HR MAX TEMP: 29; 6HR PCP: TRACE; OGDENSBURG* MOCLDY 25 21 86 SW7 30.15F POTSDAM* LGT SNOW 25 23 93 SW7 30.15F STARK FALLS* N/A 23 N/A N/A SW7 N/A WATERTOWN LGT SNOW 26 22 84 S7 30.17F FOG 6HR MIN TEMP: 26; 6HR MAX TEMP: 28; 6HR PCP: 0.01; FT DRUM LGT SNOW 23 21 93 S7 30.14F FOG 6HR MIN TEMP: 23; 6HR MAX TEMP: 25; 6HR PCP: TRACE; ALBANY LGT SNOW 24 19 81 S13 30.25F VSB 1 WCI 12 6HR MIN TEMP: 24; 6HR MAX TEMP: 26; 6HR PCP: 0.01; GLENS FALLS LGT SNOW 23 19 85 SW7 30.23F FOG 6HR MIN TEMP: 22; 6HR MAX TEMP: 26; 6HR PCP: TRACE; $$ NHZ002-005-011-020100- _____NEW HAMPSHIRE_____ CITY SKY/WX TMP DP RH WIND PRES REMARKS LEBANON LGT SNOW 23 19 85 CALM 30.20F FOG 6HR MIN TEMP: 23; 6HR MAX TEMP: 28; 6HR PCP: TRACE; KEENE CLOUDY 23 19 86 S7 30.25F 6HR MIN TEMP: 23; 6HR MAX TEMP: 27; MT WASHINGTON SNOW 9 9 100 W45 N/A VSB 1/16WCI -18 6HR MIN TEMP: 3; 6HR MAX TEMP: 10; 6HR PCP: 0.01; PLYMOUTH LGT SNOW 25 24 96 CALM 30.23F 6HR MIN TEMP: 26; 6HR MAX TEMP: 28; WHITEFIELD CLOUDY 25 15 66 CALM 30.16F 6HR MIN TEMP: 25; 6HR MAX TEMP: 31; $$ _____REGIONAL QUEBEC LOCATIONS_____ CITY SKY/WX TMP DP RH WIND PRES REMARKS MONTREAL FLURRIES 25 10 54 NW6 30.17F QUEBEC CITY CLOUDY 21 9 58 NW2 30.17F SHERBROOKE MOCLDY 27 16 63 S13 30.13F WCI 16 _____REGIONAL ONTARIO LOCATIONS_____ CITY SKY/WX TMP DP RH WIND PRES REMARKS OTTAWA CLOUDY 21 16 79 S9 30.13F ______KEY______ VSB - VISIBILITY IN MILES WCI - WIND CHILL INDEX HX - HEAT INDEX $$

USA.gov is the U.S. government's official web portal to all federal, state and local government web resources and services.